COSMOS 2251 DEB

Satellite information

Favourite Embed

Satellite Type and Status

DEBRISIN ORBIT

Key statistics

Satellite COSMOS 2251 DEB at a glance.

Uptime

11708

Days in orbit

Revolutions

≈ 14.3

Per day

Orbit

LEO

Low Earth Orbit

Inclination

74.0

Latest

Satellite identification and parameters

Extended collection of information and parameters for COSMOS 2251 DEB.

Object identification

Identified? True

Debris? True

Object name: COSMOS 2251 DEB

International designator: 1993-036AKB

Object number (NORAD): 35433

Object ID (CCSDS): 35433

Country: COMMONWEALTH OF INDEPENDENT STATES (CIS)

Current information (Y/N): Y

RCS size: SMALL

Orbital parameters

Period: 100.386 minutes

Inclination: 74.0344 deg

SMA: 7155.005 km

Apoapsis: 796.206 km

Periapsis: 757.533 km

RAAN: 273.5837 deg

Eccentricy: 0.0027025

Argument of periapsis: 8.8231 deg

Mean anomaly: 57.9432 deg

Mean motion: 14.34458116 rev/day

Mean motion (dot): 0.00000379 rev/day2

B* drag term: 0.00014314 1/REarth

Two-line elements (TLE)

Creation date: July 4, 2025, 6:39 p.m.

Reference frame: TEME

Reference center: EARTH

Epoch: July 4, 2025, 2:41 p.m. UTC

TLE line 0: 0 COSMOS 2251 DEB

TLE line 1: 1 35433U 93036AKB 25185.61219074 .00000379 00000-0 14314-3 0 9995

TLE line 2: 2 35433 74.0344 273.5837 0027025 8.8231 57.9432 14.34458116842703

Live tracking on map

Real-time ground track for satellite COSMOS 2251 DEB.

In-orbit conjunctions

A list of the most updated potential collisions computed for object COSMOS 2251 DEB.

Target Orbit TCA Probability of collision Miss distance Type
SL-16 DEB LEO 2024-11-12 05:37:19 0.000285228 729.0 (m) DEBRIS
COSMOS 468 LEO 2024-08-06 06:23:31 0.001256683 56.0 (m) PAYLOAD

Associated space launch

Military communications satellite. Destroyed in a collision with Iridium 33.

COSMOS 2251 DEB was lifted into orbit during the mission ‘Kosmos-3M | Strela-2M 51’, on board a Kosmos-3M space rocket.

The launch took place on June 16, 1993, 4:17 a.m. from 132/1 (132L).

For more information about the launch, click the button.

Launch to space Kosmos-3M | Strela-2M 51
Kosmos-3M | Strela-2M 51

Agency: N/A

Status: Launch Successful

Launch date: June 16, 1993, 4:17 a.m. UTC

Rocket: Kosmos-3M

Launch pad: 132/1 (132L)

Location: Plesetsk Cosmodrome, Russian Federation

...

Latest news about this satellite

There are no fresh news available about this satellite. Check back as we update our databases every day.


Newsletter sign-up

Weekly statistics, charts and insights to help you stay on top of the space industry.